DELTA 1 DEB, 21567

Orbit data source: Space-Track

DELTA 1 DEB, 21567 is space debris in SSO originally from a launch on Thu, 12 Jun 1975 UTC launched from the Air Force Western Test Range (AFWTR). Debris objects in space refer to the collection of defunct objects orbiting the Earth. Examples of debris include non-operational satellites, rocket bodies, and fragments generated from explosions, collisions, or faulty payload assembly.

Loading next visibility...
Identifier
21567, 1975-052HM
Orbit
SSO
Country
Flag of USUS
Related business
Manufacturer
Unknown
Mission
Spacecraft
Bus & Motor
Unknown
Mass
Unknown
Launch date (UTC)
1975-06-12 (51 years ago)
Launch vehicle
Unknown
Launch site
Air Force Western Test Range (AFWTR)
Object type
Payload
Rocket body
Debris
Shape & HBR
Unknown shape, 0.1 m
Radar Cross Section
Small (<0.1 m²)

Expand to show TLE details & history
Last TLE update: 20 hours ago

TLE from 20 hours ago
0 DELTA 1 DEB
1 21567U 75052HM  26034.43170706  .00001099  00000-0  12060-2 0  9993
2 21567  99.8391 200.8118 0245108 210.2132 178.6967 13.62451008717901
Epoch: 2026-02-03T10:21Z
TLE epoch observation values (Epoch: 2026-02-03T10:21:39.489Z)
Latitude
28.5493°
Longitude
-93.60264°
Altitude
1,211.71 km
Speed
7.161 km/s
True Right ascension
13h 01m 41s
True Declination
28° 24' 50"
Sunlit
Object was in full shadow at epoch
Visualization orbit readout
Latitude
Unknown
Longitude
Unknown
Altitude
Unknown
Speed
Unknown
Apparent Right ascension
Unknown
Apparent Declination
Unknown
Sunlit
N/A
Visualization observer readout
Local Sidereal Time
08:10:33
Azimuth
Unknown
Elevation
Unknown
Doppler factor
Unknown
Orbital elements
Apogee altitude
1,205.522 km
Perigee altitude
842.653 km
Semi-major axis
7,402.224 km
Eccentricity
0.02451
Inclination
99.8391°
RAAN
200.8118°
Arg. of periapsis
210.2132°
True anomaly
178.75868°
Mean anomaly
178.6967°
Eccentric anomaly
178.72788°
Mean motion
3.408 °/min
Orbital period
105.63 mins
BSTAR
0.001206
Loading maneuver chart data...
Computing Atmospheric mass density...
Loading historical data...
Loading historical data...
Loading historical data...
Loading historical data...
Loading historical data...
Loading historical data...
Loading historical data...

Documentation

Showing up to 5 results
|